TimeMST,TemperatureF,Dew PointF,Humidity,Sea Level PressureIn,VisibilityMPH,Wind Direction,Wind SpeedMPH,Gust SpeedMPH,PrecipitationIn,Events,Conditions,WindDirDegrees,DateUTC
12:10 AM,19.4,19.4,100,30.29,0.8,SSW,8.1,-,N/A,,Mostly Cloudy,210,2013-11-18 07:10:00
12:30 AM,19.4,17.6,93,30.29,0.2,North,-9999.0,-,N/A,Snow,Light Snow,0,2013-11-18 07:30:00
12:50 AM,19.4,17.6,93,30.29,1.0,North,-9999.0,-,N/A,,Mostly Cloudy,0,2013-11-18 07:50:00
1:10 AM,19.4,17.6,93,30.29,0.2,SSW,4.6,-,N/A,Fog,Light Freezing Fog,200,2013-11-18 08:10:00
1:30 AM,19.4,19.4,100,30.29,0.2,North,-9999.0,-,N/A,Snow,Light Snow,0,2013-11-18 08:30:00
1:50 AM,19.4,17.6,93,30.29,0.2,North,-9999.0,-,N/A,Snow,Light Snow,0,2013-11-18 08:50:00
2:10 AM,19.4,17.6,93,30.30,0.2,North,-9999.0,-,N/A,Snow,Light Snow,0,2013-11-18 09:10:00
2:30 AM,17.6,17.6,100,30.31,0.2,SSW,8.1,-,N/A,Snow,Light Snow,210,2013-11-18 09:30:00
2:50 AM,17.6,17.6,100,30.31,0.2,North,-9999.0,-,N/A,Fog,Light Freezing Fog,0,2013-11-18 09:50:00
3:10 AM,17.6,15.8,93,30.31,10.0,WSW,5.8,-,N/A,,Clear,240,2013-11-18 10:10:00
3:30 AM,17.6,17.6,100,30.31,10.0,South,6.9,-,N/A,,Clear,190,2013-11-18 10:30:00
3:50 AM,19.4,17.6,93,30.32,10.0,SSW,3.5,-,N/A,,Clear,210,2013-11-18 10:50:00
4:10 AM,17.6,15.8,93,30.32,10.0,NW,4.6,-,N/A,,Clear,320,2013-11-18 11:10:00
4:30 AM,17.6,15.8,93,30.32,10.0,NNE,5.8,-,N/A,,Clear,30,2013-11-18 11:30:00
4:50 AM,17.6,17.6,100,30.32,10.0,South,4.6,-,N/A,,Clear,190,2013-11-18 11:50:00
5:10 AM,17.6,17.6,100,30.33,10.0,Calm,Calm,-,N/A,,Clear,0,2013-11-18 12:10:00
5:30 AM,15.8,14.0,93,30.33,10.0,Calm,Calm,-,N/A,,Clear,0,2013-11-18 12:30:00
5:50 AM,15.8,14.0,93,30.34,10.0,Calm,Calm,-,N/A,,Clear,0,2013-11-18 12:50:00
6:10 AM,17.6,15.8,93,30.34,10.0,Calm,Calm,-,N/A,,Clear,0,2013-11-18 13:10:00
6:30 AM,17.6,15.8,93,30.34,10.0,Calm,Calm,-,N/A,,Clear,0,2013-11-18 13:30:00
6:50 AM,17.6,14.0,86,30.34,10.0,Calm,Calm,-,N/A,,Clear,0,2013-11-18 13:50:00
7:10 AM,19.4,10.4,68,30.35,10.0,Calm,Calm,-,N/A,,Clear,0,2013-11-18 14:10:00
7:30 AM,23.0,3.2,43,30.35,10.0,SSW,5.8,-,N/A,,Clear,200,2013-11-18 14:30:00
7:50 AM,23.0,8.6,54,30.36,10.0,South,5.8,-,N/A,,Clear,190,2013-11-18 14:50:00
8:10 AM,23.0,10.4,59,30.36,10.0,Calm,Calm,-,N/A,,Clear,0,2013-11-18 15:10:00
8:30 AM,24.8,12.2,59,30.37,10.0,SW,6.9,-,N/A,,Clear,220,2013-11-18 15:30:00
8:50 AM,24.8,14.0,64,30.37,10.0,SW,8.1,-,N/A,,Clear,220,2013-11-18 15:50:00
9:10 AM,26.6,14.0,59,30.38,10.0,SW,6.9,-,N/A,,Clear,230,2013-11-18 16:10:00
9:30 AM,26.6,12.2,55,30.38,10.0,SSW,6.9,-,N/A,,Clear,210,2013-11-18 16:30:00
9:50 AM,28.4,12.2,51,30.39,10.0,Calm,Calm,-,N/A,,Clear,0,2013-11-18 16:50:00
10:10 AM,30.2,14.0,51,30.39,10.0,Calm,Calm,-,N/A,,Clear,0,2013-11-18 17:10:00
10:30 AM,32.0,5.0,32,30.39,10.0,Calm,Calm,-,0.02,,Clear,0,2013-11-18 17:30:00
10:50 AM,32.0,17.6,55,30.39,10.0,Calm,Calm,-,0.02,,Clear,0,2013-11-18 17:50:00
11:10 AM,32.0,19.4,60,30.39,10.0,Calm,Calm,-,N/A,,Clear,0,2013-11-18 18:10:00
11:30 AM,32.0,14.0,48,30.38,10.0,Calm,Calm,-,N/A,,Clear,0,2013-11-18 18:30:00
11:50 AM,32.0,26.6,80,30.37,10.0,Calm,Calm,-,N/A,,Clear,0,2013-11-18 18:50:00
12:10 PM,32.0,26.6,80,30.37,10.0,SSW,5.8,-,N/A,,Clear,210,2013-11-18 19:10:00
12:30 PM,32.0,26.6,80,30.36,10.0,SSW,8.1,-,N/A,,Clear,210,2013-11-18 19:30:00
12:50 PM,32.0,23.0,69,30.36,10.0,SW,8.1,-,N/A,,Clear,220,2013-11-18 19:50:00
1:10 PM,32.0,21.2,64,30.35,10.0,SW,8.1,-,N/A,,Clear,220,2013-11-18 20:10:00
1:30 PM,32.0,23.0,69,30.35,10.0,SSW,8.1,-,N/A,,Clear,210,2013-11-18 20:30:00
1:50 PM,32.0,26.6,80,30.35,10.0,SW,10.4,-,N/A,,Clear,220,2013-11-18 20:50:00
2:10 PM,30.2,26.6,86,30.35,10.0,SW,12.7,-,N/A,,Clear,220,2013-11-18 21:10:00
2:30 PM,30.2,23.0,75,30.34,10.0,SW,15.0,-,N/A,,Clear,220,2013-11-18 21:30:00
2:50 PM,30.2,23.0,75,30.34,10.0,SW,13.8,-,N/A,,Clear,220,2013-11-18 21:50:00
3:10 PM,30.2,21.2,69,30.34,10.0,SW,12.7,-,N/A,,Clear,220,2013-11-18 22:10:00
3:30 PM,30.2,21.2,69,30.34,10.0,SW,13.8,-,N/A,,Clear,220,2013-11-18 22:30:00
3:50 PM,28.4,23.0,80,30.33,10.0,SSW,12.7,-,N/A,,Clear,210,2013-11-18 22:50:00
4:10 PM,28.4,23.0,80,30.33,10.0,SW,13.8,-,N/A,,Clear,220,2013-11-18 23:10:00
4:30 PM,28.4,23.0,80,30.33,10.0,SW,11.5,-,N/A,,Clear,220,2013-11-18 23:30:00
4:50 PM,28.4,23.0,80,30.33,10.0,SW,12.7,-,N/A,,Clear,220,2013-11-18 23:50:00
5:10 PM,26.6,23.0,86,30.32,10.0,SW,11.5,-,N/A,,Clear,220,2013-11-19 00:10:00
5:30 PM,26.6,23.0,86,30.32,10.0,SSW,11.5,-,N/A,,Clear,210,2013-11-19 00:30:00
5:50 PM,26.6,21.2,80,30.32,10.0,SSW,10.4,-,N/A,,Clear,210,2013-11-19 00:50:00
6:10 PM,26.6,12.2,55,30.32,10.0,SW,9.2,-,N/A,,Clear,220,2013-11-19 01:10:00
6:30 PM,24.8,8.6,50,30.32,10.0,SW,8.1,-,N/A,,Clear,220,2013-11-19 01:30:00
6:50 PM,24.8,8.6,50,30.32,10.0,SW,8.1,-,N/A,,Clear,220,2013-11-19 01:50:00
7:10 PM,24.8,14.0,64,30.32,10.0,SW,10.4,-,N/A,,Clear,220,2013-11-19 02:10:00
7:30 PM,23.0,17.6,80,30.32,10.0,SW,15.0,-,N/A,,Clear,230,2013-11-19 02:30:00
7:50 PM,24.8,19.4,80,30.32,10.0,SW,13.8,-,N/A,,Clear,220,2013-11-19 02:50:00
8:10 PM,23.0,19.4,86,30.32,10.0,SW,11.5,-,N/A,,Clear,220,2013-11-19 03:10:00
8:30 PM,23.0,19.4,86,30.32,10.0,SW,12.7,-,N/A,,Clear,220,2013-11-19 03:30:00
8:50 PM,21.2,17.6,86,30.32,10.0,SW,12.7,-,N/A,,Clear,220,2013-11-19 03:50:00
9:10 PM,21.2,17.6,86,30.32,10.0,SW,13.8,-,N/A,,Clear,220,2013-11-19 04:10:00
9:30 PM,21.2,17.6,86,30.32,10.0,SW,15.0,-,N/A,,Clear,220,2013-11-19 04:30:00
9:50 PM,21.2,15.8,80,30.32,10.0,SW,12.7,-,N/A,,Clear,220,2013-11-19 04:50:00
10:10 PM,21.2,17.6,86,30.32,10.0,SW,13.8,-,N/A,,Clear,220,2013-11-19 05:10:00
10:30 PM,21.2,17.6,86,30.31,10.0,SW,17.3,-,N/A,,Clear,220,2013-11-19 05:30:00
10:50 PM,21.2,14.0,74,30.31,10.0,SW,17.3,21.9,N/A,,Clear,230,2013-11-19 05:50:00
11:10 PM,21.2,15.8,80,30.31,10.0,SW,16.1,-,N/A,,Clear,230,2013-11-19 06:10:00
11:30 PM,21.2,17.6,86,30.30,10.0,SW,19.6,-,N/A,,Clear,220,2013-11-19 06:30:00
11:50 PM,21.2,17.6,86,30.29,10.0,SW,19.6,-,N/A,,Clear,220,2013-11-19 06:50:00